Tracking 19709 objects as of 20-Jun-2019
HD Live streaming from Space Station
objects crossing your sky now

FENGYUN 1C DEB

Track FENGYUN 1C DEB now!
10-day predictions


NORAD ID: 30360
Int'l Code: 1999-025ABX
Perigee: 827.9 km
Apogee: 882.4 km
Inclination: 98.9 °
Period: 101.9 minutes
Semi major axis: 7226 km
RCS: 0.0134 m2 (small)
Launch date: May 10, 1999
Source: People's Republic of China (PRC)
Launch site: Taiyaun Space Center, China (TSC)

Note: This is SATELLITE DEBRIS
aabbcc
Your satellite tracking list
Your tracking list is empty




NASA's NSSDC Master Catalog

Two Line Element Set (TLE):
1 30360U 99025ABX 19170.13776844  .00000295  00000-0  17968-3 0  9995
2 30360  98.9438 217.6095 0037665  70.4470 355.3351 14.13324657638877
Source of the keplerian elements: AFSPC